sat.trackr.live / text

‹ back to catalog

STARLINK-11246 [DTC]

NORAD 60932 · 2024-155J

PAYLOAD ACTIVE UNKNOWN

§ Identity

Operator
Country
US
Launch date
2024-08-31
Launch site
AFWTR
Launch vehicle
Mass (kg)
RCS (m²)

Purposes: comms

External: N2YO · Heavens-Above · Gunter

§ Orbital elements

Epoch: 2026-09-21T18:45:09.147168Z

Period
91.74 min
Inclination
53.1587°
Eccentricity
0.0000938
Mean motion
15.69706945 rev/d
Perigee alt
359.1 km
Apogee alt
360.4 km
Semi-major
6,737.9 km
B*
3.0657e-6
RAAN
94.3802°
Arg perigee
92.6390°
Mean anomaly
267.4736°
Rev number
11,920

§ Raw data

STARLINK-11246 [DTC]1 60932U 24155J   26264.78135587 -.00000217  00000+0  30657-5 0  99972 60932  53.1587  94.3802 0000938  92.6390 267.4736 15.69706945119206

JSON: /api/v1/satellites/60932 · /tle

For live sub-satellite position, see the globe view (requires WebGL).

§ Visibility from observer

Set your observer location to see the next 7 days of passes ≥ 10°. The values pass through the URL so the page stays shareable.

No JS? Fill the form by hand. The geolocation button needs JavaScript.